This is the latest recevied weather packets stored in our database for station/object VA3JLF-1. If no packets are shown the sender has not sent any weather packets the latest 10 day(s).
| Time | Temp. | Humidity | Pressure | Rain* | Wind** | Luminosity | Snow |
|---|---|---|---|---|---|---|---|
| 1778272748 | 11.67° C | 62% | 1007.4 hPa | 0 mm | - | - | - |
| 1778272148 | 11.11° C | 60% | 1007.5 hPa | 0 mm | - | - | - |
| 1778271548 | 10.56° C | 63% | 1007.4 hPa | 0 mm | - | - | - |
| 1778270948 | 11.11° C | 61% | 1007.5 hPa | 0 mm | - | - | - |
| 1778270348 | 11.11° C | 60% | 1007.5 hPa | 0 mm | - | - | - |
| 1778269748 | 11.11° C | 61% | 1007.7 hPa | 0 mm | - | - | - |
| 1778269148 | 12.22° C | 60% | 1007.6 hPa | 0 mm | - | - | - |
| 1778268548 | 11.11° C | 61% | 1007.7 hPa | 0 mm | - | - | - |
| 1778267948 | 10.56° C | 64% | 1007.7 hPa | 0 mm | - | - | - |
| 1778267348 | 10.56° C | 58% | 1007.9 hPa | 0 mm | - | - | - |
| 1778266748 | 10.56° C | 63% | 1007.9 hPa | 0 mm | - | - | - |
| 1778266148 | 10.56° C | 66% | 1008.2 hPa | 0 mm | - | - | - |
| 1778265548 | 10.56° C | 65% | 1008.2 hPa | 0 mm | - | - | - |
| 1778264948 | 10° C | 69% | 1008.2 hPa | 0 mm | - | - | - |
| 1778264349 | 10.56° C | 72% | 1008.4 hPa | 0 mm | - | - | - |
| 1778263748 | 9.44° C | 72% | 1008.4 hPa | 0 mm | - | - | - |
| 1778263148 | 9.44° C | 70% | 1008.2 hPa | 0 mm | - | - | - |
| 1778262548 | 10° C | 72% | 1008.5 hPa | 0 mm | - | - | - |
| 1778261948 | 9.44° C | 74% | 1008.6 hPa | 0 mm | - | - | - |
| 1778261349 | 9.44° C | 71% | 1008.5 hPa | 0 mm | - | - | - |
| 1778260748 | 10° C | 68% | 1008.5 hPa | 0 mm | - | - | - |
| 1778260148 | 8.89° C | 71% | 1008.4 hPa | 0 mm | - | - | - |
| 1778259548 | 8.89° C | 71% | 1008.6 hPa | 0 mm | - | - | - |
| 1778258948 | 8.89° C | 71% | 1008.5 hPa | 0 mm | - | - | - |
| 1778258348 | 8.89° C | 71% | 1008.8 hPa | 0 mm | - | - | - |
* Rain latest hour (hover to see other rain measurements)
** Current wind speed in m/s (hover to see current wind gust speed)